World > North America > United States > Mississippi   City of Jackson, MS
Hourly Weather in Jackson, MississippiJackson, Mississippi Hourly Weather

Jackson, MS Hourly Weather

Hourly Weather Jackson, MississippiHourly Weather in Jackson, MS
Lat: 32.32N, Lon: 90.21W  ICAO: KJAN
Web Search
Jackson Weather Warning NWS WEATHER ALERT FOR THE JACKSON, MS AREA - Issued: 254 AM CDT Wed Oct 27 2021 Jackson Weather Warning  

Pass this page to a friend. Tell them to point their camera at the QR Code near the bottom of this page.

Feedback

Jackson Hourly Weather

36 Hour Weather Scroll   °F Click to change Jackson hourly weather to Imperial units.Click to change Jackson hourly weather to Metric units. °C
Currently, Light Rain, temperature is 68°F20°C, dew point 59°F15°C, humidity 73%. Wind direction is ESE at 8 mph13 km/h with visibility of 10.00 mi16 km. Barometric pressure is 29.68 in1005 mb.

Oct 27
2:00 PM

Oct 27
3:00 PM

Oct 27
4:00 PM

Oct 27
5:00 PM

Oct 27
6:00 PM

Oct 27
7:00 PM

Oct 27
8:00 PM

Oct 27
9:00 PM

Oct 27
10:00 PM

Oct 27
11:00 PM

Oct 28
MIDNIGHT

Oct 28
1:00 AM

Oct 28
2:00 AM

Oct 28
3:00 AM

Oct 28
4:00 AM

Oct 28
5:00 AM

Oct 28
6:00 AM

Oct 28
7:00 AM

Oct 28
8:00 AM

Oct 28
9:00 AM

Oct 28
10:00 AM

Oct 28
11:00 AM

Oct 28
NOON

Oct 28
1:00 PM

Oct 28
2:00 PM

Oct 28
3:00 PM

Oct 28
4:00 PM

Oct 28
5:00 PM

Oct 28
6:00 PM

Oct 28
7:00 PM

Oct 28
8:00 PM

Oct 28
9:00 PM

Oct 28
10:00 PM

Oct 28
11:00 PM

Oct 29
MIDNIGHT

Oct 29
1:00 AM
Cloudy Cloudy Cloudy Cloudy Cloudy Cloudy Cloudy Cloudy Cloudy Cloudy Mostly Cloudy Mostly Cloudy Mostly Cloudy Partly Cloudy Partly Cloudy Partly Cloudy Mostly Cloudy Mostly Cloudy Mostly Cloudy Cloudy Cloudy Cloudy Cloudy Cloudy Cloudy Cloudy Cloudy Cloudy Cloudy Cloudy Cloudy Cloudy Cloudy Cloudy Cloudy Cloudy
Cloudy Cloudy Cloudy Cloudy Cloudy Cloudy Cloudy Cloudy Cloudy Cloudy Mostly Cloudy Mostly Cloudy Mostly Cloudy Partly Cloudy Partly Cloudy Partly Cloudy Mostly Cloudy Mostly Cloudy Mostly Cloudy Cloudy Cloudy Cloudy Cloudy Cloudy Cloudy Cloudy Cloudy Cloudy Cloudy Cloudy Cloudy Cloudy Cloudy Cloudy Cloudy Cloudy
74°F23°C 75°F24°C 75°F24°C 73°F23°C 72°F22°C 70°F21°C 69°F21°C 68°F20°C 67°F19°C 66°F19°C 64°F18°C 63°F17°C 62°F17°C 60°F16°C 59°F15°C 58°F14°C 56°F13°C 55°F13°C 57°F14°C 58°F14°C 60°F16°C 61°F16°C 61°F16°C 62°F17°C 62°F17°C 61°F16°C 61°F16°C 59°F15°C 57°F14°C 55°F13°C 54°F12°C 54°F12°C 53°F12°C 52°F11°C 52°F11°C 51°F11°C
Rain Rain Rain Rain Rain Rain Rain Rain Rain Rain Rain Rain - - - - - - - - - - - - Rain Rain Rain Rain Rain Rain Rain Rain Rain Rain Rain Rain
77% 77% 77% 77% 77% 77% 95% 95% 95% 95% 95% 95% 12% 12% 12% 12% 12% 12% 5% 5% 5% 5% 5% 5% 41% 41% 41% 41% 41% 41% 48% 48% 48% 48% 48% 48%
62°F17°C 63°F17°C 63°F17°C 63°F17°C 63°F17°C 63°F17°C 63°F17°C 64°F18°C 64°F18°C 63°F17°C 62°F17°C 61°F16°C 60°F16°C 58°F14°C 57°F14°C 56°F13°C 54°F12°C 53°F12°C 52°F11°C 51°F11°C 50°F10°C 49°F9°C 47°F8°C 46°F8°C 46°F8°C 45°F7°C 45°F7°C 45°F7°C 45°F7°C 45°F7°C 45°F7°C 45°F7°C 45°F7°C 45°F7°C 45°F7°C 45°F7°C
66% 66% 66% 71% 73% 79% 81% 87% 90% 90% 93% 93% 93% 93% 93% 93% 93% 93% 83% 77% 70% 65% 60% 56% 56% 56% 56% 60% 64% 69% 72% 72% 74% 77% 77% 80%
SE SE SE SE SE SE SSE SSE S S SSE SW SW SW SW SW SW SW SW SW SW SW SSW SSW SSW SSW SSW SSW SSW SSW SSW SSW SSW W W WNW
10 mph 17 mph 17 mph 17 mph 14 mph 14 mph 14 mph 14 mph 14 mph 14 mph 9 mph 9 mph 9 mph 10 mph 10 mph 10 mph 10 mph 10 mph 10 mph 15 mph 15 mph 15 mph 12 mph 12 mph 12 mph 12 mph 12 mph 12 mph 17 mph 17 mph 17 mph 18 mph 18 mph 18 mph 19 mph 19 mph
10 mi16 km 10 mi16 km 10 mi16 km 6 mi10 km 6 mi10 km 5 mi8 km 5 mi8 km 5 mi8 km 5 mi8 km 6 mi10 km 6 mi10 km 10 mi16 km 10 mi16 km 10 mi16 km 10 mi16 km 10 mi16 km 10 mi16 km 10 mi16 km 10 mi16 km 10 mi16 km 10 mi16 km 10 mi16 km 10 mi16 km 10 mi16 km 10 mi16 km 10 mi16 km 10 mi16 km 10 mi16 km 10 mi16 km 10 mi16 km 10 mi16 km 10 mi16 km 10 mi16 km 10 mi16 km 10 mi16 km 10 mi16 km
Hour (CDT)
Weather
Clouds
Temperature
Precip. Type
POP
Dewpoint
Humidity
Wind Direction
Wind Speed
Visibility
POP = Probability of Precipitation. ** Indicates missing data/values from model statistics.

24 Hour Forecast

Today - Showers and a chance of thunderstorms. Mostly cloudy. Temperatures nearly steady in the lower 70s. Southeast winds 10 to 15 mph. The chance of rain 90%.
Tonight - Showers and slight chance of thunderstorms in the evening, then a chance of showers after midnight. Mostly cloudy in the evening then becoming partly cloudy. Lows in the mid 50s. South winds 10 to 15 mph and gusty becoming southwest after midnight. The chance of rain 90%.

48 Hour Forecast API Feed


Wed, Oct 27
2:00 pm

Wed, Oct 27
3:00 pm

Wed, Oct 27
4:00 pm

Wed, Oct 27
5:00 pm

Wed, Oct 27
6:00 pm

Wed, Oct 27
7:00 pm

Wed, Oct 27
8:00 pm

Wed, Oct 27
9:00 pm

Wed, Oct 27
10:00 pm

Wed, Oct 27
11:00 pm

Thu, Oct 28
Midnight

Thu, Oct 28
1:00 am

Thu, Oct 28
2:00 am

Thu, Oct 28
3:00 am

Thu, Oct 28
4:00 am

Thu, Oct 28
5:00 am

Thu, Oct 28
6:00 am

Thu, Oct 28
7:00 am

Thu, Oct 28
8:00 am

Thu, Oct 28
9:00 am

Thu, Oct 28
10:00 am

Thu, Oct 28
11:00 am

Thu, Oct 28
Noon

Thu, Oct 28
1:00 pm

Thu, Oct 28
2:00 pm

Thu, Oct 28
3:00 pm

Thu, Oct 28
4:00 pm

Thu, Oct 28
5:00 pm

Thu, Oct 28
6:00 pm

Thu, Oct 28
7:00 pm

Thu, Oct 28
8:00 pm

Thu, Oct 28
9:00 pm

Thu, Oct 28
10:00 pm

Thu, Oct 28
11:00 pm

Fri, Oct 29
Midnight

Fri, Oct 29
1:00 am

Fri, Oct 29
2:00 am

Fri, Oct 29
3:00 am

Fri, Oct 29
4:00 am

Fri, Oct 29
5:00 am

Fri, Oct 29
6:00 am

Fri, Oct 29
7:00 am

Fri, Oct 29
8:00 am

Fri, Oct 29
9:00 am

Fri, Oct 29
10:00 am

Fri, Oct 29
11:00 am

Fri, Oct 29
Noon

Fri, Oct 29
1:00 pm
Patchy Rain PossibleLight Rain ShowerLight Rain ShowerLight Rain ShowerLight Rain ShowerTorrential Rain ShowerHeavy RainModerate RainHeavy RainModerate Or Heavy Rain ShowerLight Rain ShowerHeavy Rain At TimesPartly CloudyClearClearClearPartly CloudyPartly CloudyPartly CloudySunnySunnyPartly CloudySunnyPartly CloudyOvercastOvercastOvercastOvercastOvercastOvercastOvercastOvercastOvercastOvercastOvercastPatchy Rain PossibleOvercastOvercastPatchy Rain PossibleOvercastOvercastPatchy Rain PossibleOvercastOvercastOvercastOvercastOvercastOvercast
Patchy rain possible Light rain showers Light rain showers Light rain showers Light rain showers Heavy rain showers Heavy rain Moderate rain Heavy rain Moderate rain showers Light rain showers Heavy rain at times Partly cloudy Clear Clear Clear Partly cloudy Partly cloudy Partly cloudy Sunny Sunny Partly cloudy Sunny Partly cloudy Overcast Overcast Overcast Overcast Overcast Overcast Overcast Overcast Overcast Overcast Overcast Patchy rain possible Overcast Overcast Patchy rain possible Overcast Overcast Patchy rain possible Overcast Overcast Overcast Overcast Overcast Overcast
71°F
22°C
69°F
21°C
68°F
20°C
67°F
20°C
69°F
21°C
70°F
21°C
69°F
21°C
69°F
20°C
68°F
20°C
67°F
20°C
64°F
18°C
64°F
18°C
63°F
17°C
61°F
16°C
58°F
15°C
56°F
13°C
55°F
13°C
54°F
12°C
55°F
13°C
56°F
14°C
58°F
15°C
60°F
16°C
61°F
16°C
64°F
18°C
65°F
18°C
59°F
15°C
56°F
14°C
57°F
14°C
56°F
14°C
55°F
13°C
54°F
12°C
54°F
12°C
54°F
12°C
54°F
12°C
54°F
12°C
54°F
12°C
54°F
12°C
54°F
12°C
53°F
12°C
52°F
11°C
51°F
11°C
52°F
11°C
53°F
11°C
53°F
12°C
53°F
12°C
54°F
12°C
55°F
13°C
54°F
12°C
57°F
14°C
58°F
15°C
61°F
16°C
63°F
17°C
65°F
19°C
67°F
20°C
68°F
20°C
68°F
20°C
67°F
20°C
65°F
19°C
63°F
17°C
63°F
17°C
62°F
17°C
59°F
15°C
55°F
13°C
53°F
12°C
52°F
11°C
51°F
11°C
51°F
11°C
51°F
11°C
50°F
10°C
48°F
9°C
47°F
8°C
45°F
7°C
45°F
7°C
46°F
8°C
45°F
7°C
43°F
6°C
44°F
7°C
44°F
7°C
44°F
7°C
45°F
7°C
45°F
7°C
45°F
7°C
45°F
7°C
44°F
7°C
44°F
7°C
44°F
7°C
45°F
7°C
46°F
8°C
46°F
8°C
45°F
7°C
45°F
7°C
45°F
7°C
45°F
7°C
46°F
8°C
46°F
8°C
47°F
8°C
29.68 in
1005 mb
29.65 in
1004 mb
29.62 in
1003 mb
29.59 in
1002 mb
29.56 in
1001 mb
29.56 in
1001 mb
29.59 in
1002 mb
29.53 in
1000 mb
29.56 in
1001 mb
29.56 in
1001 mb
29.56 in
1001 mb
29.56 in
1001 mb
29.53 in
1000 mb
29.53 in
1000 mb
29.53 in
1000 mb
29.53 in
1000 mb
29.53 in
1000 mb
29.56 in
1001 mb
29.56 in
1001 mb
29.56 in
1001 mb
29.56 in
1001 mb
29.56 in
1001 mb
29.56 in
1001 mb
29.53 in
1000 mb
29.5 in
999 mb
29.53 in
1000 mb
29.53 in
1000 mb
29.53 in
1000 mb
29.56 in
1001 mb
29.56 in
1001 mb
29.56 in
1001 mb
29.59 in
1002 mb
29.59 in
1002 mb
29.59 in
1002 mb
29.59 in
1002 mb
29.59 in
1002 mb
29.59 in
1002 mb
29.59 in
1002 mb
29.62 in
1003 mb
29.62 in
1003 mb
29.65 in
1004 mb
29.65 in
1004 mb
29.68 in
1005 mb
29.71 in
1006 mb
29.71 in
1006 mb
29.74 in
1007 mb
29.74 in
1007 mb
29.74 in
1007 mb
61%68%79%85%88%92%97%97%97%94%96%97%95%92%89%90%90%90%88%83%74%64%61%50%48%64%65%60%62%67%70%71%72%72%71%67%69%70%74%81%82%78%75%73%74%74%73%76%
SESESESESESSESSESESSWWSWSSWSSWSWSWWSWWSWSWSWSWSWSWWSWSWWSWWSWWSWWSWWWWWWWWWWNWWNWWNWWNWWNWWNWWNWWNWWNWWNWWNWWNWWNW
11 mph
18 km/h
11 mph
18 km/h
13 mph
20 km/h
15 mph
24 km/h
17 mph
27 km/h
16 mph
26 km/h
9 mph
14 km/h
7 mph
12 km/h
7 mph
11 km/h
9 mph
15 km/h
7 mph
11 km/h
8 mph
13 km/h
10 mph
15 km/h
11 mph
18 km/h
11 mph
18 km/h
9 mph
14 km/h
9 mph
14 km/h
9 mph
15 km/h
10 mph
15 km/h
12 mph
20 km/h
14 mph
22 km/h
15 mph
24 km/h
13 mph
21 km/h
15 mph
24 km/h
18 mph
29 km/h
17 mph
28 km/h
16 mph
25 km/h
16 mph
26 km/h
17 mph
28 km/h
18 mph
29 km/h
18 mph
29 km/h
18 mph
29 km/h
18 mph
29 km/h
18 mph
28 km/h
18 mph
28 km/h
18 mph
29 km/h
18 mph
29 km/h
17 mph
28 km/h
16 mph
26 km/h
15 mph
24 km/h
15 mph
23 km/h
15 mph
23 km/h
14 mph
23 km/h
14 mph
22 km/h
14 mph
23 km/h
14 mph
22 km/h
14 mph
23 km/h
14 mph
22 km/h
70%89%95%95%94%94%94%61%93%83%84%74%0%0%0%0%0%0%0%0%0%0%0%0%0%0%0%0%0%0%0%0%0%0%0%88%0%0%60%0%0%66%0%0%0%0%0%0%
6 mi
9 km
6 mi
10 km
6 mi
10 km
6 mi
10 km
6 mi
10 km
2 mi
3 km
3 mi
5 km
4 mi
7 km
3 mi
5 km
4 mi
7 km
6 mi
10 km
4 mi
6 km
6 mi
10 km
6 mi
10 km
6 mi
10 km
6 mi
10 km
6 mi
10 km
6 mi
10 km
6 mi
10 km
6 mi
10 km
6 mi
10 km
6 mi
10 km
6 mi
10 km
6 mi
10 km
6 mi
10 km
6 mi
10 km
6 mi
10 km
6 mi
10 km
6 mi
10 km
6 mi
10 km
6 mi
10 km
6 mi
10 km
6 mi
10 km
6 mi
10 km
6 mi
10 km
6 mi
10 km
6 mi
10 km
6 mi
10 km
6 mi
10 km
6 mi
10 km
6 mi
10 km
6 mi
10 km
6 mi
10 km
6 mi
10 km
6 mi
10 km
6 mi
10 km
6 mi
10 km
6 mi
10 km

Day/Time
Weather
Condition
Temperature
Dew Point
Pressure
Humidity
Wind Direction
Wind Speed
Prob Precip %
Visibility
Prob Precip % = Probability of Precipitation.